Location: Gorze? G�rny
(49.8500°N, 19.5000°E)
Time: 16:33:35
(UTC+00:00)

Cosmos 1674 Rocket - Visible Passes

Search period start: 25 September 2021 00:00
Search period end: 05 October 2021 00:00
Orbit: 602 x 630 km, 82.5° (Epoch: 24 September)

Date Brightness Start Highest point End Pass type
(mag) Time Alt. Az. Time Alt. Az. Time Alt. Az.
25 Sep 6.8 18:37:21 10° NW 18:39:12 13° W 18:41:02 10° WSW visible
26 Sep 4.1 17:14:13 10° NNW 17:18:31 62° W 17:22:46 10° S visible
27 Sep 5.3 17:30:57 10° NNW 17:34:55 35° W 17:38:51 10° SSW visible
28 Sep 6.3 17:47:56 10° NW 17:51:13 21° W 17:54:29 10° SW visible
29 Sep 6.9 18:05:30 10° NW 18:07:26 13° W 18:09:21 10° WSW visible
01 Oct 5.4 16:59:10 10° NNW 17:03:08 36° W 17:07:05 10° SSW visible
02 Oct 7.2 03:59:11 10° ESE 04:01:13 13° E 04:03:15 10° NE visible
02 Oct 6.4 17:16:08 10° NW 17:19:27 22° W 17:22:45 10° SW visible
03 Oct 7.1 17:33:39 10° NW 17:35:40 13° W 17:37:42 10° WSW visible
